Weather History for Tyler, TX

Change the Weather History Date:

Friday, March 9, 2012

  Actual Average Record
Temperature  
Mean Temperature 48 °F 56 °F  
Max Temperature 53 °F 66 °F 89 °F (1911)
Min Temperature 42 °F 46 °F 21 °F (1932)
Degree Days  
Heating Degree Days 17 10  
Month to date heating degree days 47 97  
Since 1 July heating degree days 1612 1989  
Cooling Degree Days 0 0  
Month to date cooling degree days 4 0  
Year to date cooling degree days 26 12  
Moisture  
Dew Point 35 °F    
Average Humidity 67    
Maximum Humidity 93    
Minimum Humidity 41    
Precipitation  
Precipitation 0.02 in 0.14 in 1.60 in (1913)
Month to date precipitation 1.55 1.24  
Year to date precipitation 7.70 8.11  
Snow  
Snow 0.00 in - - ()
Month to date snowfall 0.0  
Since 1 July snowfall 0.0  
Snow Depth 0.00 in    
Sea Level Pressure  
Sea Level Pressure 30.36 in    
Wind  
Wind Speed 12 mph (NE)    
Max Wind Speed 22 mph    
Max Gust Speed 29 mph    
Visibility 10 miles    
Events Rain    
T = Trace of Precipitation, MM = Missing Value Source: NWS Daily Summary

Daily Weather History Graph

Daily Weather History Graph

Search for Another Location

Airport:

Trip Planner

Search our weather history database for the weather conditions in past years. The results will help you decide how hot, cold, wet, or windy it might be!

Date:

Astronomy

Mar. 09, 2012 Rise Set
Actual Time 6:38 AM CST 6:25 PM CST
Civil Twilight 6:14 AM CST 6:50 PM CST
Nautical Twilight 5:45 AM CST 7:18 PM CST
Astronomical Twilight 5:17 AM CST 7:47 PM CST
Moon 8:15 PM CST (3/9) 7:06 AM CST (3/9)
Length of Visible Light 12h 35m
Length of Day
11h 46m
Full, 97% of the Moon is Illuminated
Mar 9
Full
Mar 14
Last Quarter
Mar 22
New
Mar 30
First Quarter
Apr 6
Full

Hourly Weather History & Observations

Time (CST) Temp. Windchill Dew Point Humidity Pressure Visibility Wind Dir Wind Speed Gust Speed Precip Events Conditions
12:43 AM 48.2 °F - 46.4 °F 93% 30.28 in 10.0 mi NNE 12.7 mph 20.7 mph 0.02 in Rain Light Rain
12:53 AM 48.0 °F - 46.0 °F 93% 30.27 in 10.0 mi NNE 16.1 mph 25.3 mph 0.02 in Rain Light Rain
1:18 AM 46.4 °F 41.1 °F 46.4 °F 100% 30.31 in 10.0 mi NNE 11.5 mph 24.2 mph 0.00 in Rain Light Rain
1:53 AM 46.9 °F - 43.0 °F 86% 30.30 in 10.0 mi NNE 15.0 mph 19.6 mph 0.00 in   Overcast
2:53 AM 46.0 °F 40.6 °F 42.1 °F 86% 30.31 in 10.0 mi NE 11.5 mph 21.9 mph N/A   Overcast
3:53 AM 44.1 °F 37.4 °F 37.9 °F 79% 30.30 in 10.0 mi NNE 13.8 mph 23.0 mph N/A   Overcast
4:19 AM 44.6 °F 37.2 °F 37.4 °F 76% 30.30 in 10.0 mi NNE 17.3 mph 23.0 mph N/A   Overcast
4:53 AM 44.1 °F 36.8 °F 37.0 °F 76% 30.32 in 10.0 mi NNE 16.1 mph 24.2 mph N/A   Overcast
5:53 AM 43.0 °F 35.4 °F 35.1 °F 74% 30.35 in 10.0 mi NE 16.1 mph 25.3 mph N/A   Overcast
6:53 AM 42.1 °F 34.2 °F 35.1 °F 76% 30.37 in 10.0 mi NE 16.1 mph 26.5 mph N/A   Overcast
7:01 AM 42.8 °F 34.5 °F 35.6 °F 76% 30.36 in 10.0 mi NE 18.4 mph 26.5 mph N/A   Overcast
7:35 AM 42.8 °F 35.1 °F 33.8 °F 70% 30.37 in 10.0 mi NE 16.1 mph 23.0 mph N/A   Overcast
7:53 AM 44.1 °F 37.4 °F 34.0 °F 68% 30.39 in 10.0 mi NE 13.8 mph 21.9 mph N/A   Overcast
8:53 AM 44.1 °F 35.7 °F 32.0 °F 63% 30.41 in 10.0 mi NE 20.7 mph 26.5 mph N/A   Overcast
9:21 AM 44.6 °F 37.8 °F 33.8 °F 66% 30.41 in 10.0 mi NNE 15.0 mph 24.2 mph N/A   Overcast
9:53 AM 45.0 °F 37.4 °F 32.0 °F 60% 30.41 in 10.0 mi NE 18.4 mph 25.3 mph N/A   Mostly Cloudy
10:49 AM 46.4 °F 42.9 °F 30.2 °F 53% 30.50 in 10.0 mi East 6.9 mph - N/A   Overcast
10:53 AM 46.0 °F 43.1 °F 30.9 °F 56% 30.50 in 10.0 mi East 5.8 mph - 0.00 in Rain Light Rain
11:53 AM 46.0 °F 38.8 °F 33.1 °F 61% 30.42 in 10.0 mi NE 18.4 mph 23.0 mph 0.00 in   Overcast
12:53 PM 46.9 °F - 30.0 °F 52% 30.39 in 10.0 mi NE 17.3 mph 23.0 mph 0.00 in Rain Light Rain
1:53 PM 48.0 °F - 30.0 °F 50% 30.36 in 10.0 mi NE 10.4 mph - 0.00 in Rain Light Rain
2:53 PM 50.0 °F - 30.0 °F 46% 30.40 in 10.0 mi Calm Calm - 0.00 in   Overcast
3:53 PM 48.9 °F - 36.0 °F 61% 30.33 in 10.0 mi NE 8.1 mph - 0.01 in Rain Light Rain
4:53 PM 51.1 °F - 32.0 °F 48% 30.33 in 10.0 mi ENE 10.4 mph - 0.00 in   Clear
5:53 PM 52.0 °F - 32.0 °F 47% 30.35 in 10.0 mi North 8.1 mph - N/A   Clear
6:53 PM 51.1 °F - 33.1 °F 50% 30.37 in 10.0 mi NNE 6.9 mph - N/A   Clear
7:53 PM 51.1 °F - 32.0 °F 48% 30.35 in 10.0 mi ENE 10.4 mph - N/A   Clear
8:53 PM 53.1 °F - 30.0 °F 41% 30.35 in 10.0 mi ENE 13.8 mph 25.3 mph N/A   Clear
9:53 PM 51.1 °F - 32.0 °F 48% 30.36 in 10.0 mi ENE 4.6 mph - N/A   Clear
10:53 PM 48.9 °F - 33.1 °F 54% 30.38 in 10.0 mi NNE 4.6 mph - N/A   Partly Cloudy
11:53 PM 50.0 °F - 33.1 °F 52% 30.35 in 10.0 mi NNE 6.9 mph - N/A   Overcast